CW8198 Weather Reports


Display with metric or nautical units.
time (UTC)temp
F
wind
direction
speed
MPH
gust
MPH
rain 1hr
in
rain 24hr
in
rain mn
in
humidity
%
barometer
mb
20260906004615 88 107 7.0 11.0 0.00 0.00 0.00 67 1012.4
20260906003114 89 132 3.0 11.0 0.00 0.00 0.00 65 1012.5
20260906002613 89 126 3.0 12.0 0.00 0.00 0.00 65 1012.6
20260906002113 89 115 6.0 12.0 0.00 0.00 0.00 64 1012.4
20260906001613 90 139 6.0 15.0 0.00 0.00 0.00 64 1012.3
20260906001112 90 97 8.0 15.0 0.00 0.00 0.00 63 1012.2
20260906000612 90 123 9.0 14.0 0.00 0.00 0.00 63 1012.2
20260906000112 91 102 7.0 13.0 0.00 0.00 0.00 63 1012.2
20260905235113 91 117 8.0 14.0 0.00 0.00 0.00 61 1012.1
20260905234612 92 121 4.0 11.0 0.00 0.00 0.00 61 1012.1
20260905234112 92 130 4.0 11.0 0.00 0.00 0.00 61 1012.2
20260905233611 92 149 4.0 10.0 0.00 0.00 0.00 61 1012.2
20260905233111 92 156 4.0 10.0 0.00 0.00 0.00 61 1012.2
20260905232611 92 123 6.0 12.0 0.00 0.00 0.00 60 1012.2
20260905231109 92 178 6.0 11.0 0.00 0.00 0.00 60 1012.3
20260905230610 92 129 6.0 11.0 0.00 0.00 0.00 60 1012.2
20260905230108 93 139 6.0 9.0 0.00 0.00 0.00 58 1012.2
20260905225605 93 209 3.0 11.0 0.00 0.00 0.00 57 1012.3
20260905225104 93 162 3.0 11.0 0.00 0.00 0.00 58 1012.2
20260905224602 93 139 3.0 11.0 0.00 0.00 0.00 58 1012.2
20260905224104 93 205 4.0 11.0 0.00 0.00 0.00 57 1012.2
20260905223601 93 237 5.0 10.0 0.00 0.00 0.00 56 1012.2
20260905223101 93 173 6.0 10.0 0.00 0.00 0.00 57 1012.2
20260905222601 93 184 4.0 10.0 0.00 0.00 0.00 57 1012.1
20260905222101 93 208 4.0 13.0 0.00 0.00 0.00 58 1012.0
20260905221600 93 151 6.0 13.0 0.00 0.00 0.00 57 1011.9
20260905221101 93 173 6.0 10.0 0.00 0.00 0.00 57 1011.8
20260905220600 92 137 3.0 10.0 0.00 0.00 0.00 59 1011.8
20260905220100 92 144 6.0 12.0 0.00 0.00 0.00 58 1011.8
20260905215600 92 163 5.0 17.0 0.00 0.00 0.00 58 1011.7
20260905215100 92 130 9.0 17.0 0.00 0.00 0.00 56 1011.8
20260905214600 92 132 7.0 13.0 0.00 0.00 0.00 56 1011.8
20260905214101 93 141 5.0 13.0 0.00 0.00 0.00 57 1011.9
20260905213600 92 144 5.0 13.0 0.00 0.00 0.00 58 1012.0
20260905213058 92 113 4.0 13.0 0.00 0.00 0.00 57 1012.2
20260905212558 92 155 5.0 14.0 0.00 0.00 0.00 56 1012.2
20260905212058 92 184 5.0 14.0 0.00 0.00 0.00 55 1012.2
20260905211558 92 130 7.0 13.0 0.00 0.00 0.00 55 1012.2
20260905210057 91 128 8.0 16.0 0.00 0.00 0.00 56 1012.5
20260905205057 91 131 8.0 13.0 0.00 0.00 0.00 56 1012.6
20260905204058 91 144 9.0 14.0 0.00 0.00 0.00 57 1012.8
20260905203556 91 133 10.0 14.0 0.00 0.00 0.00 56 1012.9
20260905203056 91 212 5.0 13.0 0.00 0.00 0.00 58 1013.0
20260905202556 90 40 7.0 14.0 0.00 0.00 0.00 57 1013.3
20260905202055 90 99 8.0 15.0 0.00 0.00 0.00 57 1013.3
20260905201556 90 123 8.0 15.0 0.00 0.00 0.00 56 1013.4
20260905201055 90 132 6.0 15.0 0.00 0.00 0.00 58 1013.6
20260905200055 90 133 8.0 16.0 0.00 0.00 0.00 58 1014.0
20260905195555 90 137 6.0 16.0 0.00 0.00 0.00 58 1014.2
20260905194554 90 128 6.0 11.0 0.00 0.00 0.00 58 1014.5
20260905194055 90 51 4.0 12.0 0.00 0.00 0.00 58 1014.7
20260905193554 90 123 6.0 12.0 0.00 0.00 0.00 59 1014.6
20260905193054 89 133 7.0 13.0 0.00 0.00 0.00 58 1014.7
20260905192554 89 38 6.0 13.0 0.00 0.00 0.00 56 1014.6
20260905192053 89 98 6.0 13.0 0.00 0.00 0.00 58 1014.5
20260905191554 89 110 6.0 12.0 0.00 0.00 0.00 59 1014.6
20260905191054 89 93 7.0 14.0 0.00 0.00 0.00 57 1014.7
20260905190553 89 80 6.0 16.0 0.00 0.00 0.00 58 1014.8
20260905190053 89 92 11.0 16.0 0.00 0.00 0.00 58 1014.9
20260905185553 89 131 3.0 15.0 0.00 0.00 0.00 63 1015.1
20260905185051 89 123 7.0 15.0 0.00 0.00 0.00 62 1015.3
20260905184551 88 124 9.0 15.0 0.00 0.00 0.00 63 1015.6
20260905183548 88 51 6.0 16.0 0.00 0.00 0.00 64 1015.6
20260905183048 88 27 6.0 14.0 0.00 0.00 0.00 66 1015.8
20260905182549 88 160 4.0 15.0 0.00 0.00 0.00 69 1015.8
20260905182049 88 117 9.0 21.0 0.00 0.00 0.00 67 1015.7
20260905181549 88 129 6.0 21.0 0.00 0.00 0.00 67 1015.8
20260905181048 88 341 5.0 13.0 0.00 0.00 0.00 66 1016.0
20260905180548 88 21 7.0 16.0 0.00 0.00 0.00 67 1016.0
20260905180049 88 142 5.0 16.0 0.00 0.00 0.00 68 1015.9
20260905175548 88 105 5.0 15.0 0.00 0.00 0.00 70 1015.9
20260905175048 87 344 6.0 15.0 0.00 0.00 0.00 69 1015.8
20260905174548 87 15 4.0 12.0 0.00 0.00 0.00 70 1015.8
20260905174049 87 110 6.0 12.0 0.00 0.00 0.00 72 1015.8
20260905173547 86 123 5.0 18.0 0.00 0.00 0.00 72 1015.9
20260905173047 86 347 6.0 18.0 0.00 0.00 0.00 70 1015.8
20260905172547 86 319 7.0 16.0 0.00 0.00 0.00 70 1015.8
20260905172047 86 34 5.0 17.0 0.00 0.00 0.00 71 1016.0
20260905171546 87 23 5.0 17.0 0.00 0.00 0.00 70 1016.0
20260905171046 87 80 4.0 12.0 0.00 0.00 0.00 71 1015.9
20260905170546 87 109 4.0 12.0 0.00 0.00 0.00 70 1016.1
20260905170046 87 13 2.0 14.0 0.00 0.00 0.00 73 1015.9
20260905165546 86 26 7.0 14.0 0.00 0.00 0.00 71 1015.9
20260905165046 87 9 8.0 13.0 0.00 0.00 0.00 69 1016.1
20260905163545 86 24 4.0 11.0 0.00 0.00 0.00 70 1016.1
20260905163045 86 334 4.0 11.0 0.00 0.00 0.00 70 1016.1
20260905162545 87 48 4.0 14.0 0.00 0.00 0.00 73 1016.2
20260905162045 87 11 7.0 14.0 0.00 0.00 0.00 72 1016.1
20260905161544 87 36 4.0 11.0 0.00 0.00 0.00 71 1016.1
20260905161045 88 316 3.0 17.0 0.00 0.00 0.00 73 1016.1
20260905160545 88 13 10.0 17.0 0.00 0.00 0.00 72 1016.2
20260905160044 88 334 5.0 9.0 0.00 0.00 0.00 70 1015.9
20260905154545 88 46 4.0 6.0 0.00 0.00 0.00 69 1015.5
20260905153543 88 34 3.0 9.0 0.00 0.00 0.00 70 1015.5
20260905153044 88 319 4.0 9.0 0.00 0.00 0.00 72 1015.6
20260905152543 87 344 4.0 7.0 0.00 0.00 0.00 73 1015.5
20260905152043 87 13 3.0 5.0 0.00 0.00 0.00 71 1015.5
20260905151543 87 44 1.0 3.0 0.00 0.00 0.00 74 1015.3
20260905151043 86 340 1.0 3.0 0.00 0.00 0.00 72 1015.2
20260905150543 86 34 2.0 3.0 0.00 0.00 0.00 70 1015.0
20260905150042 86 123 1.0 3.0 0.00 0.00 0.00 69 1015.0
20260905145542 85 9 1.0 3.0 0.00 0.00 0.00 70 1015.0
20260905145042 85 265 0.0 2.0 0.00 0.00 0.00 70 1014.9
20260905144543 85 178 1.0 3.0 0.00 0.00 0.00 71 1014.8
20260905144041 85 137 0.0 4.0 0.00 0.00 0.00 73 1014.7
20260905143041 85 346 2.0 3.0 0.00 0.00 0.00 71 1014.7
20260905142540 85 9 0.0 4.0 0.00 0.00 0.00 73 1014.5
20260905141535 84 178 2.0 5.0 0.00 0.00 0.00 74 1014.2
20260905140536 82 129 2.0 5.0 0.00 0.00 0.00 81 1014.4
20260905140035 80 76 3.0 5.0 0.00 0.00 0.00 84 1014.1
20260905135535 79 193 2.0 6.0 0.00 0.00 0.00 86 1013.8
20260905135034 78 164 2.0 6.0 0.00 0.00 0.00 88 1013.8
20260905134536 78 131 2.0 4.0 0.00 0.00 0.00 89 1013.9
20260905134034 77 178 2.0 3.0 0.00 0.00 0.00 89 1013.9
20260905133534 77 178 2.0 3.0 0.00 0.00 0.00 90 1014.2
20260905133034 76 205 1.0 2.0 0.00 0.00 0.00 90 1014.2
20260905132533 75 239 0.0 2.0 0.00 0.00 0.00 90 1014.3
20260905132033 74 265 0.0 2.0 0.00 0.00 0.00 90 1014.2
20260905131022 73 9 1.0 2.0 0.00 0.00 0.00 90 1013.8
20260905130521 73 309 0.0 2.0 0.00 0.00 0.00 90 1013.7
20260905130021 73 212 1.0 2.0 0.00 0.00 0.00 90 1013.7
20260905125520 73 221 1.0 1.0 0.00 0.00 0.00 90 1013.7
20260905124520 72 9 0.0 1.0 0.00 0.00 0.00 90 1013.6
20260905124020 72 265 0.0 1.0 0.00 0.00 0.00 90 1013.4
20260905123520 72 221 0.0 1.0 0.00 0.00 0.00 89 1013.4
20260905123021 73 221 0.0 1.0 0.00 0.00 0.00 89 1013.3
20260905122019 72 205 0.0 2.0 0.00 0.00 0.00 89 1013.1
20260905121514 72 51 1.0 2.0 0.00 0.00 0.00 89 1013.0
20260905121013 72 221 0.0 2.0 0.00 0.00 0.00 89 1012.8
20260905120003 73 34 0.0 2.0 0.00 0.00 0.00 89 1012.7
20260905114958 73 153 1.0 2.0 0.00 0.00 0.00 90 1012.4
20260905114458 73 212 1.0 2.0 0.00 0.00 0.00 90 1012.4
20260905113958 73 178 1.0 2.0 0.00 0.00 0.00 90 1012.7
20260905113500 73 51 0.0 2.0 0.00 0.00 0.00 90 1012.7
20260905112950 72 93 0.0 1.0 0.00 0.00 0.00 90 1012.8
20260905111947 72 108 0.0 2.0 0.00 0.00 0.00 90 1012.7
20260905111447 72 93 0.0 2.0 0.00 0.00 0.00 90 1012.7
20260905110948 72 146 0.0 2.0 0.00 0.00 0.00 90 1012.6
20260905110447 73 111 0.0 2.0 0.00 0.00 0.00 90 1012.6
20260905105947 73 108 1.0 2.0 0.00 0.00 0.00 90 1012.5
20260905105447 72 146 1.0 3.0 0.00 0.00 0.00 90 1012.4
20260905104947 73 188 1.0 3.0 0.00 0.00 0.00 90 1012.4
20260905104447 73 178 1.0 2.0 0.00 0.00 0.00 90 1012.4
20260905103447 73 178 1.0 2.0 0.00 0.00 0.00 90 1012.5
20260905102946 73 196 1.0 2.0 0.00 0.00 0.00 90 1012.5
20260905102447 73 93 1.0 2.0 0.00 0.00 0.00 90 1012.4
20260905101936 73 178 0.0 2.0 0.00 0.00 0.00 90 1012.4
20260905100935 73 137 1.0 3.0 0.00 0.00 0.00 90 1012.4
20260905100437 73 106 1.0 2.0 0.00 0.00 0.00 90 1012.4
20260905095934 73 196 1.0 2.0 0.00 0.00 0.00 90 1012.3
20260905094935 73 108 0.0 2.0 0.00 0.00 0.00 90 1012.2
20260905094435 73 137 1.0 2.0 0.00 0.00 0.00 90 1012.1
20260905093935 73 126 0.0 2.0 0.00 0.00 0.00 90 1012.2
20260905092935 74 93 1.0 2.0 0.00 0.00 0.00 90 1012.1
20260905092434 73 119 0.0 2.0 0.00 0.00 0.00 90 1012.1
20260905091936 73 9 0.0 2.0 0.00 0.00 0.00 90 1012.1
20260905091434 73 9 0.0 2.0 0.00 0.00 0.00 90 1012.1
20260905090934 73 137 0.0 2.0 0.00 0.00 0.00 90 1012.1
20260905090434 73 119 0.0 1.0 0.00 0.00 0.00 90 1012.1
20260905085934 73 34 0.0 1.0 0.00 0.00 0.00 90 1012.2
20260905085424 73 93 0.0 1.0 0.00 0.00 0.00 90 1012.3
20260905084923 73 51 0.0 1.0 0.00 0.00 0.00 90 1012.2
20260905084425 73 221 0.0 2.0 0.00 0.00 0.00 90 1012.4
20260905083919 74 196 0.0 1.0 0.00 0.00 0.00 90 1012.5
20260905083418 74 221 0.0 1.0 0.00 0.00 0.00 90 1012.5
20260905082918 74 178 0.0 1.0 0.00 0.00 0.00 90 1012.5
20260905082417 74 137 0.0 1.0 0.00 0.00 0.00 90 1012.5
20260905081918 74 51 0.0 1.0 0.00 0.00 0.00 90 1012.5
20260905081418 74 51 0.0 1.0 0.00 0.00 0.00 90 1012.6
20260905080917 74 51 0.0 1.0 0.00 0.00 0.00 90 1012.6
20260905080418 74 51 0.0 2.0 0.00 0.00 0.00 90 1012.7
20260905075419 74 178 1.0 2.0 0.00 0.00 0.00 90 1012.7
20260905074917 75 193 1.0 1.0 0.00 0.00 0.00 89 1012.8
20260905074417 75 178 0.0 2.0 0.00 0.00 0.00 90 1012.8
20260905073917 75 178 0.0 2.0 0.00 0.00 0.00 90 1012.8
20260905073417 75 51 0.0 1.0 0.00 0.00 0.00 89 1012.9
20260905072913 75 221 0.0 1.0 0.00 0.00 0.00 89 1013.0
20260905072412 75 205 0.0 1.0 0.00 0.00 0.00 89 1013.0
20260905071912 76 221 0.0 1.0 0.00 0.00 0.00 89 1013.0
20260905071407 76 93 0.0 2.0 0.00 0.00 0.00 90 1013.0
20260905070907 76 212 0.0 2.0 0.00 0.00 0.00 90 1013.0
20260905070407 76 30 0.0 2.0 0.00 0.00 0.00 89 1013.0
20260905065909 76 178 0.0 1.0 0.00 0.00 0.00 89 1013.1
20260905065407 76 221 0.0 1.0 0.00 0.00 0.00 89 1013.0
20260905064907 76 221 0.0 2.0 0.00 0.00 0.00 89 1013.1
20260905064407 76 178 1.0 2.0 0.00 0.00 0.00 89 1013.1
20260905063906 76 190 1.0 2.0 0.00 0.00 0.00 89 1013.3
20260905063406 76 217 0.0 2.0 0.00 0.00 0.00 89 1013.1
20260905062907 76 298 0.0 2.0 0.00 0.00 0.00 89 1013.3
20260905062406 76 247 1.0 2.0 0.00 0.00 0.00 89 1013.3
20260905061906 77 51 0.0 2.0 0.00 0.00 0.00 89 1013.3
20260905060906 77 265 0.0 1.0 0.00 0.00 0.00 89 1013.3
20260905055908 77 9 0.0 1.0 0.00 0.00 0.00 89 1013.3
20260905055400 77 265 0.0 1.0 0.00 0.00 0.00 88 1013.3
20260905054355 78 137 1.0 2.0 0.00 0.00 0.00 89 1013.3
20260905053856 78 51 0.0 2.0 0.00 0.00 0.00 89 1013.1
20260905053355 77 26 1.0 2.0 0.00 0.00 0.00 88 1013.1
20260905052855 78 309 0.0 1.0 0.00 0.00 0.00 88 1013.1
20260905052354 78 309 0.0 1.0 0.00 0.00 0.00 88 1013.0
20260905051855 78 119 0.0 2.0 0.00 0.00 0.00 88 1013.0
20260905051355 78 137 0.0 2.0 0.00 0.00 0.00 88 1013.0
20260905050855 78 178 0.0 1.0 0.00 0.00 0.00 88 1013.0
20260905045854 78 221 0.0 1.0 0.00 0.00 0.00 87 1013.0
20260905045355 79 221 0.0 1.0 0.00 0.00 0.00 87 1013.0
20260905044848 79 137 1.0 1.0 0.00 0.00 0.00 87 1012.9
20260905044348 79 153 0.0 1.0 0.00 0.00 0.00 87 1012.8
20260905043344 79 221 0.0 2.0 0.00 0.00 0.00 87 1012.8
20260905042843 79 196 1.0 1.0 0.00 0.00 0.00 87 1012.8
20260905042343 79 51 1.0 1.0 0.00 0.00 0.00 87 1012.7
20260905041843 80 232 0.0 1.0 0.00 0.00 0.00 87 1012.7
20260905041343 80 265 0.0 1.0 0.00 0.00 0.00 86 1012.7
20260905040844 80 221 0.0 1.0 0.00 0.00 0.00 87 1012.6
20260905040332 80 221 0.0 1.0 0.00 0.00 0.00 86 1012.6
20260905035832 80 178 0.0 2.0 0.00 0.00 0.00 86 1012.6
20260905035332 80 212 1.0 2.0 0.00 0.00 0.00 86 1012.5
20260905034831 81 221 0.0 1.0 0.00 0.00 0.00 86 1012.5
20260905034332 81 93 0.0 1.0 0.00 0.00 0.00 86 1012.6
20260905033832 81 178 0.0 1.0 0.00 0.00 0.00 86 1012.5
20260905033326 81 51 0.0 2.0 0.00 0.00 0.00 85 1012.5
20260905032311 81 238 1.0 2.0 0.00 0.00 0.00 85 1012.5
20260905031812 81 221 0.0 2.0 0.00 0.00 0.00 84 1012.5
20260905031310 82 229 2.0 2.0 0.00 0.00 0.00 84 1012.4
20260905025810 82 9 1.0 2.0 0.00 0.00 0.00 83 1012.3
20260905025309 82 325 0.0 1.0 0.00 0.00 0.00 82 1012.2
20260905024810 82 178 0.0 1.0 0.00 0.00 0.00 82 1012.1
20260905024305 83 238 0.0 1.0 0.00 0.00 0.00 82 1012.2
20260905023805 83 309 0.0 2.0 0.00 0.00 0.00 81 1012.0
20260905022758 83 196 1.0 1.0 0.00 0.00 0.00 81 1012.0
20260905022259 84 51 0.0 1.0 0.00 0.00 0.00 80 1012.0
20260905021800 84 51 0.0 1.0 0.00 0.00 0.00 80 1012.0
20260905021259 84 178 0.0 1.0 0.00 0.00 0.00 80 1012.0
20260905020758 85 9 0.0 2.0 0.00 0.00 0.00 79 1012.0
20260905020258 85 137 1.0 2.0 0.00 0.00 0.00 78 1012.0
20260905015758 85 146 1.0 2.0 0.00 0.00 0.00 77 1011.9
20260905015258 86 212 1.0 2.0 0.00 0.00 0.00 76 1012.0
20260905013759 87 265 0.0 2.0 0.00 0.00 0.00 73 1011.6
20260905013253 87 51 0.0 2.0 0.00 0.00 0.00 72 1011.6
20260905012752 88 51 0.0 1.0 0.00 0.00 0.00 70 1011.6
20260905012252 89 51 0.0 2.0 0.00 0.00 0.00 70 1011.5
20260905011253 89 115 1.0 2.0 0.00 0.00 0.00 68 1011.5
20260905010752 89 119 0.0 2.0 0.00 0.00 0.00 67 1011.5
20260905010251 90 126 1.0 2.0 0.00 0.00 0.00 66 1011.4
20260905005751 90 153 1.0 2.0 0.00 0.00 0.00 66 1011.3